| time (UTC) | temp F | wind direction | speed MPH | gust MPH | rain 1hr in | rain 24hr in | rain mn in | humidity % | barometer mb |
| 20260508231540 | 71 | 93 | 0.0 | 2.0 | 0.00 | 0.01 | 0.01 | 65 | 1016.1 |
| 20260508230033 | 71 | 114 | 0.0 | 3.0 | 0.00 | 0.01 | 0.01 | 64 | 1016.2 |
| 20260508224554 | 72 | 104 | 0.0 | 2.0 | 0.00 | 0.01 | 0.01 | 64 | 1016.4 |
| 20260508223030 | 73 | 110 | 0.0 | 2.0 | 0.00 | 0.01 | 0.01 | 64 | 1016.6 |
| 20260508221532 | 73 | 181 | 0.0 | 3.0 | 0.00 | 0.01 | 0.01 | 65 | 1016.8 |
| 20260508220031 | 72 | 207 | 0.0 | 3.0 | 0.00 | 0.01 | 0.01 | 64 | 1016.9 |
| 20260508214533 | 72 | 84 | 0.0 | 5.0 | 0.00 | 0.01 | 0.01 | 65 | 1017.1 |
| 20260508213029 | 72 | 115 | 0.0 | 7.0 | 0.00 | 0.01 | 0.01 | 67 | 1017.4 |
| 20260508211522 | 71 | 215 | 1.0 | 6.0 | 0.00 | 0.01 | 0.01 | 66 | 1017.5 |
| 20260508210019 | 71 | 174 | 0.0 | 8.0 | 0.00 | 0.01 | 0.01 | 70 | 1017.7 |
| 20260508204512 | 70 | 207 | 0.0 | 8.0 | 0.00 | 0.01 | 0.01 | 71 | 1017.7 |
| 20260508203011 | 69 | 97 | 0.0 | 6.0 | 0.00 | 0.01 | 0.01 | 71 | 1017.9 |
| 20260508201507 | 69 | 208 | 0.0 | 7.0 | 0.00 | 0.01 | 0.01 | 72 | 1018.0 |
| 20260508200015 | 68 | 136 | 0.0 | 2.0 | 0.00 | 0.01 | 0.01 | 74 | 1018.2 |
| 20260508194603 | 67 | 234 | 1.0 | 7.0 | 0.00 | 0.01 | 0.01 | 74 | 1018.4 |
| 20260508193104 | 66 | 165 | 0.0 | 5.0 | 0.00 | 0.01 | 0.01 | 78 | 1018.6 |
| 20260508191554 | 65 | 174 | 3.0 | 7.0 | 0.00 | 0.01 | 0.01 | 77 | 1018.6 |
| 20260508190050 | 63 | 53 | 0.0 | 3.0 | 0.00 | 0.01 | 0.01 | 79 | 1018.8 |
| 20260508184548 | 62 | 220 | 0.0 | 2.0 | 0.00 | 0.01 | 0.01 | 81 | 1018.9 |
| 20260508183100 | 61 | 209 | 0.0 | 6.0 | 0.00 | 0.01 | 0.01 | 84 | 1019.1 |
| 20260508181550 | 59 | 175 | 0.0 | 5.0 | 0.00 | 0.01 | 0.01 | 86 | 1019.3 |
| 20260508180036 | 55 | 178 | 1.0 | 8.0 | 0.00 | 0.01 | 0.01 | 86 | 1019.2 |
| 20260508174538 | 53 | 194 | 1.0 | 7.0 | 0.00 | 0.01 | 0.01 | 87 | 1019.4 |
| 20260508173037 | 52 | 189 | 0.0 | 3.0 | 0.00 | 0.01 | 0.01 | 87 | 1019.4 |
| 20260508171536 | 53 | 70 | 0.0 | 5.0 | 0.00 | 0.01 | 0.01 | 89 | 1019.3 |
| 20260508170031 | 54 | 192 | 0.0 | 3.0 | 0.00 | 0.01 | 0.01 | 91 | 1019.3 |
| 20260508164531 | 55 | 237 | 0.0 | 4.0 | 0.00 | 0.01 | 0.01 | 92 | 1019.2 |
| 20260508163029 | 55 | 311 | 0.0 | 0.0 | 0.00 | 0.01 | 0.01 | 93 | 1019.2 |
| 20260508161534 | 54 | 325 | 0.0 | 0.0 | 0.00 | 0.01 | 0.01 | 94 | 1019.1 |
| 20260508160027 | 54 | 111 | 0.0 | 0.0 | 0.00 | 0.01 | 0.01 | 94 | 1019.1 |
| 20260508154523 | 53 | 220 | 0.0 | 0.0 | 0.00 | 0.01 | 0.01 | 94 | 1019.0 |
| 20260508153021 | 53 | 100 | 0.0 | 0.0 | 0.00 | 0.01 | 0.01 | 94 | 1019.0 |
| 20260508151520 | 53 | 115 | 0.0 | 0.0 | 0.00 | 0.01 | 0.01 | 94 | 1018.9 |
| 20260508150022 | 52 | 254 | 0.0 | 0.0 | 0.00 | 0.01 | 0.01 | 94 | 1018.8 |
| 20260508144534 | 52 | 267 | 0.0 | 0.0 | 0.00 | 0.01 | 0.01 | 94 | 1018.9 |
| 20260508143026 | 52 | 291 | 0.0 | 0.0 | 0.00 | 0.01 | 0.01 | 94 | 1018.7 |
| 20260508141521 | 52 | 261 | 0.0 | 0.0 | 0.00 | 0.01 | 0.01 | 94 | 1018.5 |
| 20260508140013 | 52 | 261 | 0.0 | 0.0 | 0.01 | 0.01 | 0.01 | 94 | 1018.5 |
| 20260508134511 | 52 | 261 | 0.0 | 0.0 | 0.01 | 0.01 | 0.01 | 94 | 1018.5 |
| 20260508133007 | 51 | 261 | 0.0 | 0.0 | 0.01 | 0.01 | 0.01 | 94 | 1018.4 |
| 20260508131507 | 51 | 261 | 0.0 | 0.0 | 0.01 | 0.01 | 0.01 | 94 | 1018.4 |
| 20260508130002 | 51 | 261 | 0.0 | 0.0 | 0.00 | 0.00 | 0.00 | 94 | 1018.3 |
| 20260508124603 | 51 | 261 | 0.0 | 0.0 | 0.00 | 0.00 | 0.00 | 94 | 1018.2 |
| 20260508123100 | 51 | 261 | 0.0 | 0.0 | 0.00 | 0.00 | 0.00 | 94 | 1018.2 |
| 20260508121559 | 51 | 261 | 0.0 | 0.0 | 0.00 | 0.00 | 0.00 | 94 | 1018.1 |
| 20260508120057 | 51 | 261 | 0.0 | 0.0 | 0.00 | 0.00 | 0.00 | 94 | 1018.1 |
| 20260508114601 | 51 | 261 | 0.0 | 0.0 | 0.00 | 0.00 | 0.00 | 94 | 1018.1 |
| 20260508113123 | 51 | 261 | 0.0 | 0.0 | 0.00 | 0.00 | 0.00 | 93 | 1018.2 |
| 20260508111554 | 51 | 261 | 0.0 | 0.0 | 0.00 | 0.00 | 0.00 | 93 | 1018.2 |
| 20260508110052 | 51 | 261 | 0.0 | 0.0 | 0.00 | 0.00 | 0.00 | 93 | 1018.2 |
| 20260508104556 | 50 | 261 | 0.0 | 0.0 | 0.00 | 0.00 | 0.00 | 93 | 1018.3 |
| 20260508103050 | 50 | 261 | 0.0 | 0.0 | 0.00 | 0.00 | 0.00 | 93 | 1018.2 |
| 20260508101549 | 50 | 261 | 0.0 | 0.0 | 0.00 | 0.00 | 0.00 | 93 | 1018.1 |
| 20260508100046 | 50 | 261 | 0.0 | 0.0 | 0.00 | 0.00 | 0.00 | 92 | 1018.2 |
| 20260508094544 | 50 | 262 | 0.0 | 0.0 | 0.00 | 0.00 | 0.00 | 92 | 1018.3 |
| 20260508093042 | 50 | 262 | 0.0 | 0.0 | 0.00 | 0.00 | 0.00 | 92 | 1018.1 |
| 20260508091536 | 50 | 262 | 0.0 | 0.0 | 0.00 | 0.00 | 0.00 | 92 | 1018.2 |
| 20260508090043 | 49 | 262 | 0.0 | 0.0 | 0.00 | 0.00 | 0.00 | 92 | 1018.1 |
| 20260508084532 | 49 | 262 | 0.0 | 0.0 | 0.00 | 0.00 | 0.00 | 92 | 1018.1 |
| 20260508083038 | 49 | 262 | 0.0 | 0.0 | 0.00 | 0.00 | 0.00 | 91 | 1018.1 |
| 20260508081533 | 49 | 262 | 0.0 | 0.0 | 0.00 | 0.00 | 0.00 | 91 | 1018.1 |
| 20260508080031 | 49 | 262 | 0.0 | 0.0 | 0.00 | 0.00 | 0.00 | 91 | 1018.1 |
| 20260508074532 | 49 | 262 | 0.0 | 0.0 | 0.00 | 0.00 | 0.00 | 91 | 1018.1 |
| 20260508073030 | 49 | 262 | 0.0 | 0.0 | 0.00 | 0.00 | 0.00 | 91 | 1018.1 |
| 20260508071528 | 49 | 262 | 0.0 | 0.0 | 0.00 | 0.00 | 0.00 | 90 | 1018.1 |
| 20260508070026 | 49 | 242 | 0.0 | 0.0 | 0.00 | 0.00 | 0.00 | 90 | 1017.9 |
| 20260508064547 | 48 | 242 | 0.0 | 0.0 | 0.00 | 0.00 | 0.00 | 90 | 1017.9 |
| 20260508063027 | 48 | 242 | 0.0 | 0.0 | 0.00 | 0.00 | 0.00 | 89 | 1017.8 |
| 20260508061524 | 47 | 242 | 0.0 | 0.0 | 0.00 | 0.00 | 0.00 | 88 | 1017.9 |
| 20260508060029 | 47 | 242 | 0.0 | 0.0 | 0.00 | 0.00 | 0.00 | 88 | 1018.0 |
| 20260508054534 | 48 | 242 | 0.0 | 0.0 | 0.00 | 0.00 | 0.00 | 88 | 1017.8 |
| 20260508053022 | 49 | 242 | 0.0 | 0.0 | 0.00 | 0.00 | 0.00 | 87 | 1017.8 |
| 20260508051526 | 49 | 242 | 0.0 | 0.0 | 0.00 | 0.00 | 0.00 | 87 | 1017.8 |
| 20260508050032 | 50 | 242 | 0.0 | 0.0 | 0.00 | 0.00 | 0.00 | 87 | 1017.7 |
| 20260508044524 | 51 | 242 | 0.0 | 0.0 | 0.00 | 0.00 | 0.00 | 87 | 1017.7 |
| 20260508043025 | 52 | 242 | 0.0 | 0.0 | 0.00 | 0.00 | 0.00 | 87 | 1017.5 |
| 20260508041519 | 53 | 232 | 0.0 | 2.0 | 0.00 | 0.00 | 0.00 | 87 | 1017.3 |
| 20260508040020 | 53 | 212 | 0.0 | 0.0 | 0.00 | 0.00 | 0.00 | 87 | 1017.2 |
| 20260508034524 | 54 | 229 | 0.0 | 4.0 | 0.00 | 0.00 | 0.00 | 86 | 1017.0 |
| 20260508033018 | 55 | 228 | 0.0 | 4.0 | 0.00 | 0.00 | 0.00 | 86 | 1016.7 |
| 20260508031518 | 56 | 210 | 0.0 | 4.0 | 0.00 | 0.00 | 0.00 | 85 | 1016.7 |
| 20260508030017 | 57 | 222 | 0.0 | 3.0 | 0.00 | 0.00 | 0.00 | 84 | 1016.5 |
| 20260508024520 | 58 | 202 | 0.0 | 1.0 | 0.00 | 0.00 | 0.00 | 83 | 1016.4 |
| 20260508023016 | 59 | 204 | 0.0 | 5.0 | 0.00 | 0.00 | 0.00 | 82 | 1016.3 |
| 20260508021514 | 60 | 186 | 0.0 | 4.0 | 0.00 | 0.00 | 0.00 | 80 | 1016.4 |
| 20260508020014 | 61 | 181 | 0.0 | 7.0 | 0.00 | 0.00 | 0.00 | 79 | 1016.4 |
| 20260508014513 | 62 | 215 | 1.0 | 8.0 | 0.00 | 0.00 | 0.00 | 77 | 1016.5 |
| 20260508013012 | 64 | 184 | 0.0 | 7.0 | 0.00 | 0.00 | 0.00 | 75 | 1016.6 |
| 20260508011512 | 66 | 175 | 0.0 | 4.0 | 0.00 | 0.00 | 0.00 | 73 | 1016.6 |
| 20260508010021 | 67 | 196 | 0.0 | 7.0 | 0.00 | 0.00 | 0.00 | 71 | 1016.6 |
| 20260508004508 | 68 | 211 | 0.0 | 5.0 | 0.00 | 0.00 | 0.00 | 69 | 1016.8 |
| 20260508003008 | 69 | 190 | 0.0 | 3.0 | 0.00 | 0.00 | 0.00 | 67 | 1016.9 |
| 20260508001509 | 70 | 168 | 0.0 | 4.0 | 0.00 | 0.00 | 0.00 | 65 | 1016.9 |
| 20260508000008 | 69 | 192 | 1.0 | 5.0 | 0.00 | 0.00 | 0.00 | 66 | 1016.8 |
| 20260507234513 | 69 | 215 | 0.0 | 5.0 | 0.00 | 0.00 | 0.00 | 65 | 1016.8 |
| 20260507233008 | 70 | 175 | 0.0 | 7.0 | 0.00 | 0.00 | 0.00 | 68 | 1016.9 |